Regional Weather Roundup
Issued by NWS Sioux Falls, SD

Home | Current Version | Previous Version | Text Only | Print | Product List | Glossary Off
Versions: 1 2 3 4 5 6 7 8 9 10 11 12 13 14 15 16 17 18 19 20 21 22 23 24 25 26 27 28 29 30 31 32 33 34 35 36 37 38 39 40 41 42 43 44 45 46 47 48 49 50

000
ASUS43 KFSD 282002
RWRFSD

WEATHER ROUNDUP FOR SE SOUTH DAKOTA/SW MINNESOTA/NW IOWA
NATIONAL WEATHER SERVICE SIOUX FALLS SD
300 PM CDT THU JUL 28 2016

NOTE: "FAIR" INDICATES FEW OR NO CLOUDS BELOW 12,000 FEET WITH NO
SIGNIFICANT WEATHER AND OR OBSTRUCTIONS TO VISIBILITY.


SDZ038>040-050-052>070-282100-
SOUTHEAST SOUTH DAKOTA

CITY           SKY/WX    TMP DP  RH WIND       PRES   REMARKS
BROOKINGS      MOSUNNY   74  60  61 VRB5      30.07S
CHAMBERLAIN    PTSUNNY   82  59  46 NE5       30.06F
HURON          SUNNY     80  59  48 N6        30.06S
MADISON        FAIR      75  64  69 E6        30.07S
MITCHELL       SUNNY     82  57  42 NW8       30.06S
SIOUX FALLS    PTSUNNY   76  61  59 N3        30.05S
WINNER         MOCLDY    77  63  61 SW5       30.08F
YANKTON        CLOUDY    81  57  44 NW8       30.02S
$$

MNZ071-072-080-081-089-090-097-098-282100-
SOUTHWEST MINNESOTA

CITY           SKY/WX    TMP DP  RH WIND       PRES   REMARKS
FAIRMONT       CLOUDY    73  63  68 N8        30.01F
JACKSON        CLOUDY    72  61  68 N9        30.04F
LUVERNE        PTSUNNY   75  61  60 NE7       30.05S
MARSHALL       CLOUDY    73  63  70 N10       30.06F
MONTEVIDEO     MOSUNNY   75  57  53 E13       30.08S
REDWOOD FALLS  PTSUNNY   75  57  53 N8        30.04S
TRACY          MOSUNNY   74  64  71 N10       30.05F
WINDOM         MOSUNNY   73  63  68 N8        30.04F
WORTHINGTON    PTSUNNY   73  62  68 N12       30.05F
$$

IAZ001>003-012>014-020>022-031-032-NEZ013-014-SDZ071-282100-
NORTHWEST IOWA

CITY           SKY/WX    TMP DP  RH WIND       PRES   REMARKS
CHEROKEE       CLOUDY    75  63  65 N8        30.02F
DENISON        MOSUNNY   79  64  61 N13       29.99F
ESTHERVILLE    CLOUDY    72  64  76 VRB7      30.03F
LE MARS        MOSUNNY   79  63  57 N8G15     30.03F
SHELDON        PTSUNNY   77  64  65 N10       30.02F
SIOUX CITY     MOSUNNY   83  59  44 N13       30.01F
SPENCER        CLOUDY    74  61  63 N9        30.03F
STORM LAKE       N/A     75  63  64 N9        30.03S
$$

ABBREVIATIONS USED IN REMARKS
   TC - TEMPERATURE IN CELSIUS
  WCI - WIND CHILL INDEX
   HX - HEAT INDEX
  VSB - VISIBILITY





USA.gov is the U.S. government's official web portal to all federal, state and local government web resources and services.